PRAETORIAN SDA_611

Last updated on Sat Jun 27 2026 00:03:47 GMT+0000 (Coordinated Universal Time)

1 65574U 25203K 26177.74868117 .00000103 00000+0 83268-4 0 9998 2 65574 81.3008 2.0857 0005861 168.5460 191.5831 13.83309789 40004
UTC large
Height (km)
Speed (km/s)
/
Latitude / Longitude
Inclination (degrees)
Orbital Period (minutes)
Azimuth
Elevation
Range (km)
Doppler Factor

Next 0 passes for location: London (51.5072 / 0.1276)

No passes found over London.
PRAETORIAN SDA_611